Regional Weather Roundup
Issued by NWS

Home | Current Version | Previous Version | Graphics & Text | Print | Product List | Glossary On
Versions: 1 2 3 4 5 6 7 8 9 10 11 12 13 14 15 16 17 18 19 20 21 22 23 24 25 26 27 28 29 30 31 32 33 34 35 36 37 38 39 40 41 42 43 44 45 46 47 48 49 50
000
ASUS45 KSLC 071310
RWRUT

UTAH REGIONAL WEATHER ROUNDUP
NATIONAL WEATHER SERVICE SALT LAKE CITY UT
600 AM MST WED DEC 07 2016

UTZ001>011-023>025-071400-

NORTHERN UTAH

CITY           SKY/WX    TMP DP  RH WIND       PRES   REMARKS
BRIGHAM CITY     N/A     18  10  70 SW3       30.16R
HILL AFB       CLOUDY    19  10  68 NW7       30.11R WCI  10
LOGAN          MOCLDY    15  11  83 W3        30.15R
OGDEN          MOCLDY    19  11  70 NW5       30.13R WCI  12
SALT LAKE CITY CLOUDY    24  14  65 N9        30.14R WCI  14
TOOELE VALLEY  MOCLDY    21  18  86 W3        30.16R
WENDOVER       CLEAR     19   7  58 SW3       30.16R
HEBER CITY     PTCLDY    10   5  79 E5        30.03R WCI   2
WEST JORDAN    MOCLDY    21  19  93 NW5       30.13R WCI  14

$$

UTZ011>015-024>027-071400-

CENTRAL/NORTHEAST UTAH

CITY           SKY/WX    TMP DP  RH WIND       PRES   REMARKS
PROVO AIRPORT  MOCLDY    22  16  78 NW14      30.14R WCI   9
MOAB/CANYONLAN CLEAR     25   4  40 W10       30.03R WCI  15
DELTA          CLOUDY    21  12  68 N5        30.13R WCI  15
PRICE          CLEAR     12   4  70 NW3       30.01R
ROOSEVELT      CLEAR     19   5  53 W6        30.04R WCI  11
VERNAL         CLOUDY    14   2  58 CALM      30.03R

$$

UTZ013>016-019>022-027-071400-

SOUTHERN UTAH

CITY           SKY/WX    TMP DP  RH WIND       PRES   REMARKS
BRYCE CANYON   NOT AVBL
CEDAR CITY     CLEAR     12   7  80 CALM      30.03R
MILFORD        CLEAR     11   4  73 CALM      30.08R
ST GEORGE      MOSUNNY   30  10  43 S6        30.08R WCI  24
HANKSVILLE     CLEAR     28  10  47 NW9       30.08R WCI  20
BLANDING       PTCLDY    22  13  69 CALM      30.06R

$$

REGIONAL REPORTS     COLORADO/ARIZONA

CITY           SKY/WX    TMP DP  RH WIND       PRES   REMARKS
CRAIG, CO      CLOUDY     6   2  83 W3        29.99R
GRAND JUNCTION CLEAR     13  12  96 E3        30.02R
RIFLE, CO      PTCLDY    18  14  84 SW3       30.00R
MONTROSE, CO   CLOUDY    20  16  84 SW3       30.02R
CORTEZ, CO     CLOUDY    26  18  71 E6        29.97S WCI  19
COLORADO CITY    N/A     19  16  86 SE5       30.04R WCI  13
PAGE, AZ       CLOUDY    38   6  26 NW8       30.00R WCI  32
GRAND CANYON   CLOUDY    32  31  96 W5        29.98R WCI  27
KINGMAN, AZ    PTCLDY    34  28  79 E9        29.98R WCI  27
FLAGSTAFF, AZ  CLOUDY    31  27  85 SW6       29.98R WCI  25

$$

REGIONAL REPORTS    NEVADA/IDAHO/WYOMING

CITY           SKY/WX    TMP DP  RH WIND       PRES   REMARKS
LAS VEGAS, NV  MOCLDY    45   9  23 N15       30.04R
ELY, NY        CLOUDY     6   2  83 S5        30.05R WCI  -3
ELKO, NV       CLEAR     11   6  81 CALM      30.14R
POCATELLO, ID  FLURRIES  17  12  80 SW7       30.17R WCI   8
BURLEY, ID     CLOUDY    19  15  84 W12       30.17R WCI   7
FORT BRIDGER,    N/A      3  -2  81 W8        30.00R WCI -11
EVANSTON, WY   CLOUDY     5  -2  72 CALM      29.98R
ROCK SPRINGS,  LGT SNOW   3  -1  83 NE10      29.97R FOG     WCI -12

$$



USA.gov is the U.S. government's official web portal to all federal, state and local government web resources and services.